Showing default

DMC 3-FM3, 40717

Orbit data source: Space-Track

DMC 3-FM3, 40717 is a payload satellite owned by DMCii (UK) in SSO that was launched on Fri, 10 Jul 2015 UTC via a PSLV-XL launch vehicle from the Sirharikota (SRI). Payloads include a variety of satellites, spacecraft, and rockets equipped with specific instruments for various scientific and technological missions. These include communications satellites like Starlink; space stations such as the ISS; scientific satellites like the Hubble; Earth observation satellites from companies like Planet Labs, Umbra, and HawkEye 360; GPS; miniature CubeSats for education and research; and military/defense satellites.

Loading next visibility...
DMC 3-FM3 details
Identifier
40717, 2015-032C
Orbit
SSO
Last TLE update7 hours ago
Origin
Flag of UKDMCii (UK)
ManufacturerSSTL (Astrium)
MissionOperational Commercial Imaging
Bus & MotorSSTL-300S1, Unknown motor
Mass447 kg wet, 435 kg dry
Launch date (UTC)
2015-07-10 (9 years ago)
Launch vehicle
PSLV-XL
Launch site
Sirharikota (SRI)
Object type
Payload
Rocket body
Debris
Shape & HBRHept Cyl + Cyl, 2.5 m
Radar Cross Section2.356 m², Large (>1 m²)

Expand to show TLE details & history

TLE from 7 hours ago
0 DMC 3-FM3
1 40717U 15032C   24340.14516343  .00002262  00000-0  27523-3 0  9994
2 40717  97.7333 216.4096 0010499  93.3417 266.8999 14.84375535506938
Epoch: 2024-12-05T03:29Z
Definitive object data (Epoch: 2024-12-05T03:29:02.12Z)
Latitude-0.00002°
Longitude89.7206°
Altitude618.984 km
Speed7.549 km/s
True Right ascension14h 25m 38s
True Declination0° 00' 00"
Sunlit
Object was in daylight at TLE epoch
Visualization TLE readout
Latitude18.1541°
Longitude87.44716°
Altitude615.999 km
Speed7.554 km/s
Apparent Right ascension16h 36m 22s
Apparent Declination-12° 35' 14"
Sunlit
Object is in daylight
Visualization observer readout
Local Sidereal Time08:00:32
Azimuth73.375° E
Elevation-37.625°
Doppler factor1
Orbital elements
Apogee altitude619.914 km
Perigee altitude605.235 km
Semi-major axis6,990.711 km
Eccentricity0.0010499
Inclination97.7333°
RAAN216.4096°
Arg. of periapsis93.3417°
True anomaly266.77978°
Mean anomaly266.8999°
Eccentric anomaly266.83984°
Mean motion3.71331 °/min
BSTAR0.00027523
Orbital period96.95 mins
Loading maneuver chart data...
Loading historical data...
Loading historical data...
Loading historical data...
Loading historical data...
Loading historical data...
Loading historical data...
Loading historical data...

DMC 3-FM3 Visibility forecast

Observer location: undefined°, undefined

Span
Click to sort rows by Start time (UTC) header in descending order
Start Az.
Max El. time (UTC)
Max El. Az.
Max El.
End time (UTC)
End Az.
5 mins2024-12-05 14:58:13.506Z102.004° ESE2024-12-05 15:00:13.506Z69.358° E17.813°2024-12-05 15:03:13.506Z23.387° NE
6 mins2024-12-05 16:33:13.506Z202.269° SSW2024-12-05 16:36:13.506Z265.741° W30.382°2024-12-05 16:39:13.506Z324.19° NNW
6 mins2024-12-06 04:20:13.506Z37.744° NE2024-12-06 04:23:13.506Z108.046° ESE31.495°2024-12-06 04:26:13.506Z162.919° S
4 mins2024-12-06 05:57:13.506Z318.369° NNW2024-12-06 05:58:13.506Z301.75° NW16.729°2024-12-06 06:01:13.506Z254.464° W
|